FW4300 Weather Reports


Display with metric or nautical units.
time (UTC)temp
F
wind
direction
speed
MPH
gust
MPH
rain 1hr
in
rain 24hr
in
rain mn
in
humidity
%
barometer
mb
20260903235012 80 169 0.0 0.0 0.00 0.02 0.02 64 1016.5
20260903234513 80 210 0.0 0.0 0.00 0.02 0.02 64 1016.6
20260903234012 80 210 0.0 0.0 0.00 0.02 0.02 64 1016.5
20260903233514 81 176 0.0 0.0 0.00 0.02 0.02 63 1016.4
20260903233021 81 162 0.0 0.0 0.00 0.02 0.02 63 1016.5
20260903232512 81 162 0.0 0.0 0.00 0.02 0.02 63 1016.5
20260903232012 81 162 0.0 0.0 0.00 0.02 0.02 63 1016.4
20260903231516 81 172 0.0 0.0 0.00 0.02 0.02 63 1016.3
20260903231011 81 124 0.0 0.0 0.00 0.02 0.02 63 1016.3
20260903230514 81 160 0.0 0.0 0.00 0.02 0.02 63 1016.3
20260903230012 81 145 0.0 0.0 0.00 0.02 0.02 63 1016.3
20260903225513 81 201 0.0 0.0 0.00 0.02 0.02 63 1016.3
20260903225012 81 139 0.0 0.0 0.00 0.02 0.02 63 1016.1
20260903224519 82 137 0.0 0.0 0.00 0.02 0.02 63 1016.2
20260903224014 82 148 0.0 0.0 0.01 0.02 0.02 63 1016.1
20260903223510 82 122 0.0 0.0 0.01 0.02 0.02 62 1016.0
20260903223013 82 131 0.0 0.0 0.01 0.02 0.02 63 1016.1
20260903222508 82 123 0.0 0.0 0.01 0.02 0.02 63 1016.0
20260903222008 82 121 0.0 0.0 0.01 0.02 0.02 63 1015.9
20260903221508 82 141 0.0 0.0 0.01 0.02 0.02 63 1015.9
20260903221009 82 120 0.0 0.0 0.01 0.02 0.02 63 1015.9
20260903220507 82 133 0.0 0.0 0.01 0.02 0.02 63 1015.7
20260903220007 82 120 0.0 0.0 0.01 0.02 0.02 64 1015.6
20260903215507 83 127 0.0 5.0 0.01 0.02 0.02 63 1015.6
20260903215006 84 150 0.0 7.0 0.01 0.02 0.02 62 1015.6
20260903214509 85 155 1.0 7.0 0.01 0.02 0.02 60 1015.6
20260903214005 85 162 0.0 2.0 0.00 0.01 0.01 59 1015.6
20260903213504 85 197 0.0 0.0 0.00 0.01 0.01 58 1015.6
20260903213004 86 202 0.0 0.0 0.00 0.01 0.01 59 1015.6
20260903212504 86 190 0.0 0.0 0.00 0.01 0.01 59 1015.6
20260903212003 86 187 0.0 0.0 0.00 0.01 0.01 59 1015.7
20260903211503 86 126 0.0 1.0 0.00 0.01 0.01 59 1015.7
20260903211003 86 158 0.0 1.0 0.00 0.01 0.01 58 1015.7
20260903210502 86 218 0.0 1.0 0.00 0.01 0.01 58 1015.6
20260903210002 87 203 0.0 0.0 0.00 0.01 0.01 57 1015.6
20260903205502 87 211 0.0 2.0 0.00 0.01 0.01 57 1015.5
20260903205001 87 180 0.0 0.0 0.00 0.01 0.01 56 1015.5
20260903204601 88 136 0.0 1.0 0.00 0.01 0.01 55 1015.4
20260903204100 89 256 0.0 5.0 0.00 0.01 0.01 55 1015.4
20260903203559 89 184 0.0 5.0 0.00 0.01 0.01 54 1015.3
20260903203059 89 165 0.0 5.0 0.00 0.01 0.01 53 1015.3
20260903202559 88 120 0.0 5.0 0.00 0.01 0.01 54 1015.4
20260903202100 88 212 0.0 2.0 0.00 0.01 0.01 53 1015.4
20260903201557 89 240 0.0 2.0 0.00 0.01 0.01 52 1015.3
20260903201059 89 250 0.0 4.0 0.00 0.01 0.01 53 1015.3
20260903200556 89 166 0.0 4.0 0.00 0.01 0.01 52 1015.3
20260903200057 89 168 0.0 3.0 0.00 0.01 0.01 52 1015.2
20260903195555 89 141 0.0 4.0 0.00 0.02 0.01 50 1015.3
20260903195055 90 165 0.0 5.0 0.00 0.02 0.01 50 1015.3
20260903194556 90 210 0.0 6.0 0.00 0.02 0.01 49 1015.3
20260903194056 90 210 0.0 1.0 0.00 0.02 0.01 48 1015.2
20260903193554 90 164 0.0 3.0 0.00 0.02 0.01 49 1015.1
20260903193054 90 180 0.0 3.0 0.00 0.02 0.01 48 1015.1
20260903192556 90 198 0.0 0.0 0.00 0.02 0.01 49 1015.1
20260903192052 89 137 0.0 0.0 0.00 0.02 0.01 48 1015.0
20260903191552 89 165 0.0 0.0 0.00 0.02 0.01 47 1015.1
20260903191054 89 186 0.0 0.0 0.00 0.02 0.01 49 1015.2
20260903190551 89 159 0.0 7.0 0.00 0.02 0.01 49 1015.2
20260903190051 89 185 0.0 7.0 0.00 0.02 0.01 49 1015.2
20260903185549 90 127 0.0 2.0 0.00 0.02 0.01 48 1015.2
20260903185049 91 174 0.0 0.0 0.00 0.02 0.01 48 1015.4
20260903184551 92 212 0.0 0.0 0.00 0.02 0.01 47 1015.3
20260903184047 91 201 0.0 0.0 0.00 0.02 0.01 46 1015.4
20260903183549 91 219 0.0 4.0 0.00 0.02 0.01 45 1015.4
20260903183044 91 109 0.0 6.0 0.00 0.02 0.01 43 1015.5
20260903182545 91 181 0.0 0.0 0.00 0.02 0.01 46 1015.5
20260903182045 91 128 0.0 4.0 0.00 0.02 0.01 44 1015.6
20260903181542 91 163 0.0 6.0 0.00 0.02 0.01 44 1015.5
20260903181041 91 148 0.0 6.0 0.00 0.02 0.01 43 1015.6
20260903180541 91 124 0.0 5.0 0.00 0.02 0.01 44 1015.6
20260903180040 91 174 0.0 3.0 0.00 0.02 0.01 45 1015.8
20260903175538 91 105 0.0 5.0 0.00 0.02 0.01 46 1015.9
20260903175037 91 152 0.0 6.0 0.00 0.02 0.01 46 1016.0
20260903174536 91 139 0.0 6.0 0.00 0.02 0.01 45 1016.0
20260903174035 90 120 0.0 6.0 0.00 0.02 0.01 46 1016.0
20260903173534 91 169 0.0 6.0 0.00 0.02 0.01 45 1016.1
20260903173036 90 129 0.0 8.0 0.00 0.02 0.01 48 1016.1
20260903172537 90 120 0.0 8.0 0.00 0.02 0.01 47 1016.0
20260903172033 91 145 0.0 3.0 0.00 0.02 0.01 43 1016.1
20260903171541 91 176 0.0 5.0 0.00 0.02 0.01 45 1016.1
20260903171031 90 138 0.0 5.0 0.00 0.02 0.01 44 1016.2
20260903170530 91 162 0.0 5.0 0.00 0.02 0.01 46 1016.2
20260903170034 91 77 0.0 5.0 0.00 0.02 0.01 46 1016.2
20260903165529 90 86 0.0 5.0 0.00 0.02 0.01 45 1016.3
20260903165028 90 197 0.0 5.0 0.00 0.02 0.01 46 1016.5
20260903164528 90 82 0.0 1.0 0.00 0.02 0.01 45 1016.5
20260903164028 90 56 0.0 1.0 0.00 0.02 0.01 44 1016.6
20260903163529 90 84 0.0 0.0 0.00 0.02 0.01 45 1016.7
20260903163027 89 125 0.0 0.0 0.00 0.02 0.01 46 1016.7
20260903162526 90 141 0.0 7.0 0.00 0.02 0.01 46 1016.7
20260903162028 89 134 0.0 7.0 0.00 0.02 0.01 43 1016.8
20260903161527 89 105 0.0 6.0 0.00 0.02 0.01 46 1016.7
20260903161027 89 96 0.0 6.0 0.00 0.02 0.01 46 1016.9
20260903160525 89 115 0.0 6.0 0.00 0.02 0.01 46 1016.9
20260903160024 89 127 0.0 6.0 0.00 0.02 0.01 46 1017.0
20260903155524 89 116 0.0 6.0 0.00 0.02 0.01 45 1017.1
20260903155024 89 190 0.0 8.0 0.00 0.02 0.01 50 1017.2
20260903154523 88 120 0.0 8.0 0.00 0.02 0.01 49 1017.2
20260903154022 88 59 0.0 4.0 0.00 0.02 0.01 49 1017.2
20260903153524 88 144 0.0 3.0 0.00 0.02 0.01 50 1017.2
20260903153021 89 148 0.0 4.0 0.00 0.02 0.01 50 1017.2
20260903152521 89 154 0.0 3.0 0.00 0.02 0.01 50 1017.4
20260903152020 88 145 0.0 3.0 0.00 0.02 0.01 53 1017.3
20260903151520 88 121 0.0 4.0 0.00 0.02 0.01 50 1017.5
20260903151020 89 103 0.0 7.0 0.00 0.02 0.01 48 1017.5
20260903150521 89 115 0.0 7.0 0.00 0.02 0.01 50 1017.5
20260903150020 88 87 0.0 8.0 0.00 0.02 0.01 49 1017.5
20260903145517 88 92 0.0 7.0 0.00 0.02 0.01 49 1017.5
20260903145017 88 72 0.0 7.0 0.00 0.02 0.01 51 1017.6
20260903144520 88 212 0.0 7.0 0.00 0.02 0.01 50 1017.5
20260903144016 88 158 0.0 5.0 0.00 0.02 0.01 52 1017.6
20260903143513 88 105 0.0 7.0 0.00 0.02 0.01 53 1017.6
20260903143013 87 147 1.0 7.0 0.00 0.02 0.01 54 1017.6
20260903142513 87 115 0.0 8.0 0.00 0.02 0.01 55 1017.5
20260903142011 87 134 0.0 7.0 0.00 0.02 0.01 58 1017.6
20260903141511 87 115 0.0 5.0 0.00 0.02 0.01 61 1017.5
20260903141010 86 103 0.0 8.0 0.00 0.02 0.01 62 1017.5
20260903140510 86 94 2.0 8.0 0.00 0.02 0.01 62 1017.5
20260903140014 86 217 0.0 6.0 0.00 0.02 0.01 62 1017.5
20260903135509 86 164 0.0 3.0 0.00 0.02 0.01 62 1017.4
20260903135009 87 157 0.0 3.0 0.00 0.02 0.01 61 1017.5
20260903134509 86 120 0.0 5.0 0.00 0.02 0.01 62 1017.4
20260903134009 86 165 0.0 6.0 0.00 0.02 0.01 62 1017.4
20260903133506 86 89 1.0 6.0 0.00 0.02 0.01 63 1017.3
20260903133006 86 122 0.0 2.0 0.00 0.02 0.01 63 1017.3
20260903132506 86 82 0.0 5.0 0.00 0.02 0.01 63 1017.3
20260903132006 85 126 0.0 5.0 0.00 0.02 0.01 63 1017.3
20260903131505 86 88 0.0 3.0 0.00 0.02 0.01 63 1017.2
20260903131005 86 127 0.0 6.0 0.00 0.02 0.01 63 1017.3
20260903130504 86 142 2.0 6.0 0.00 0.02 0.01 63 1017.2
20260903130002 86 68 1.0 5.0 0.00 0.02 0.01 65 1017.1
20260903125501 85 125 1.0 5.0 0.00 0.02 0.01 65 1017.1
20260903125002 85 137 1.0 5.0 0.00 0.02 0.01 65 1017.1
20260903124610 85 131 0.0 5.0 0.00 0.02 0.01 66 1017.0
20260903124059 85 129 0.0 0.0 0.00 0.02 0.01 66 1017.0
20260903123557 84 119 0.0 0.0 0.00 0.02 0.01 67 1017.0
20260903123056 84 160 0.0 0.0 0.00 0.02 0.01 68 1017.0
20260903122555 83 227 0.0 0.0 0.00 0.02 0.01 69 1017.0
20260903122056 81 214 0.0 0.0 0.00 0.02 0.01 70 1017.0
20260903121555 80 285 0.0 0.0 0.00 0.02 0.01 71 1016.9
20260903121051 79 285 0.0 0.0 0.00 0.02 0.01 73 1016.9
20260903120552 79 298 0.0 0.0 0.00 0.02 0.01 74 1016.8
20260903120116 78 295 0.0 0.0 0.00 0.02 0.01 75 1016.9
20260903115547 78 298 0.0 0.0 0.00 0.02 0.01 75 1016.9
20260903115049 77 326 0.0 0.0 0.00 0.02 0.01 76 1016.9
20260903114600 77 335 0.0 0.0 0.00 0.02 0.01 76 1016.9
20260903114045 77 330 0.0 0.0 0.00 0.02 0.01 76 1016.9
20260903113544 77 329 0.0 0.0 0.00 0.02 0.01 78 1016.8
20260903113044 77 25 0.0 0.0 0.00 0.02 0.01 80 1016.8
20260903112542 76 4 0.0 0.0 0.00 0.02 0.01 80 1016.8
20260903112040 76 2 0.0 0.0 0.00 0.02 0.01 80 1016.8
20260903111541 76 324 0.0 0.0 0.00 0.02 0.01 80 1016.8
20260903111038 75 338 0.0 0.0 0.00 0.02 0.01 80 1016.7
20260903110536 75 323 0.0 0.0 0.00 0.02 0.01 80 1016.7
20260903110037 75 324 0.0 0.0 0.00 0.02 0.01 80 1016.6
20260903105536 75 331 0.0 0.0 0.00 0.02 0.01 81 1016.6
20260903105035 75 324 0.0 0.0 0.00 0.02 0.01 81 1016.6
20260903104534 75 20 0.0 0.0 0.00 0.02 0.01 82 1016.5
20260903104036 74 12 0.0 0.0 0.00 0.02 0.01 82 1016.3
20260903103533 74 343 0.0 0.0 0.00 0.02 0.01 82 1016.4
20260903103030 0 0.0 0.0 0.00 0.02 0.01 1016.3
20260903102530 0 0.0 0.0 0.00 0.02 0.01 1016.4
20260903102030 0 0.0 0.0 0.00 0.02 0.01 1016.3
20260903101526 0 0.0 0.0 0.00 0.02 0.01 1016.5
20260903101024 0 0.0 0.0 0.00 0.02 0.01 1016.4
20260903100524 0 0.0 0.0 0.00 0.02 0.01 1016.3
20260903100026 0 0.0 0.0 0.00 0.02 0.01 1016.3
20260903095520 0 0.0 0.0 0.00 0.02 0.01 1016.3
20260903095019 0 0.0 0.0 0.00 0.02 0.01 1016.4
20260903094517 0 0.0 0.0 0.00 0.02 0.01 1016.2
20260903094017 0 0.0 0.0 0.00 0.02 0.01 1016.2
20260903093513 0 0.0 0.0 0.00 0.02 0.01 1016.2
20260903093013 0 0.0 0.0 0.00 0.02 0.01 1016.1
20260903092513 0 0.0 0.0 0.00 0.02 0.01 1016.2
20260903092011 0 0.0 0.0 0.00 0.02 0.01 1016.2
20260903091508 0 0.0 0.0 0.00 0.02 0.01 1016.2
20260903091007 0 0.0 0.0 0.00 0.02 0.01 1016.2
20260903090505 0 0.0 0.0 0.00 0.02 0.01 1016.1
20260903090004 0 0.0 0.0 0.00 0.02 0.01 1016.0
20260903085503 0 0.0 0.0 0.00 0.02 0.01 1016.0
20260903085000 0 0.0 0.0 0.00 0.02 0.01 1016.0
20260903084601 0 0.0 0.0 0.00 0.02 0.01 1016.0
20260903084058 0 0.0 0.0 0.00 0.02 0.01 1016.0
20260903083559 0 321 0.0 0.0 0.00 0.02 0.01 1016.0
20260903083054 0 321 0.0 0.0 0.00 0.02 0.01 1016.0
20260903082553 0 321 0.0 0.0 0.00 0.02 0.01 1016.1
20260903082052 74 318 0.0 0.0 0.00 0.02 0.01 80 1016.0
20260903081552 74 326 0.0 0.0 0.00 0.02 0.01 80 1016.1
20260903081052 74 326 0.0 0.0 0.00 0.02 0.01 80 1016.0
20260903080551 74 326 0.0 0.0 0.00 0.02 0.01 80 1016.0
20260903080051 74 326 0.0 0.0 0.00 0.02 0.01 80 1015.9
20260903075551 74 343 0.0 0.0 0.00 0.02 0.01 80 1015.9
20260903075050 74 343 0.0 0.0 0.00 0.02 0.01 80 1015.9
20260903074614 74 346 0.0 0.0 0.00 0.02 0.01 79 1016.0
20260903074049 74 32 0.0 0.0 0.00 0.02 0.01 79 1016.0
20260903073548 74 2 0.0 0.0 0.00 0.02 0.01 79 1015.9
20260903073055 75 327 0.0 0.0 0.00 0.02 0.01 79 1015.8
20260903072546 75 9 0.0 0.0 0.00 0.02 0.01 79 1016.0
20260903072045 75 29 0.0 0.0 0.00 0.02 0.01 79 1015.8
20260903071544 75 74 0.0 0.0 0.00 0.02 0.01 78 1016.0
20260903071041 75 37 0.0 0.0 0.00 0.02 0.01 78 1015.9
20260903070540 75 4 0.0 0.0 0.01 0.02 0.01 78 1015.9
20260903070039 75 33 0.0 0.0 0.01 0.02 0.01 78 1015.9
20260903065542 75 328 0.0 0.0 0.01 0.02 0.01 77 1015.9
20260903065038 75 334 0.0 0.0 0.01 0.02 0.01 76 1016.0
20260903064536 75 325 0.0 0.0 0.01 0.02 0.01 76 1016.0
20260903064035 75 352 0.0 0.0 0.01 0.02 0.01 76 1016.0
20260903063534 75 345 0.0 0.0 0.01 0.02 0.01 76 1015.9
20260903063032 75 2 0.0 0.0 0.01 0.02 0.01 76 1016.0
20260903062531 75 333 0.0 0.0 0.01 0.02 0.01 75 1016.0
20260903062029 75 323 0.0 0.0 0.01 0.02 0.01 75 1016.0
20260903061541 75 302 0.0 0.0 0.01 0.02 0.01 75 1016.0
20260903061026 75 321 0.0 0.0 0.01 0.02 0.01 74 1016.1
20260903060525 75 344 0.0 0.0 0.00 0.01 0.00 74 1016.2
20260903060024 75 332 0.0 0.0 0.00 0.01 0.00 73 1016.2
20260903055522 75 326 0.0 0.0 0.00 0.01 0.00 73 1016.2
20260903055020 75 290 0.0 0.0 0.00 0.01 0.00 72 1016.2
20260903054520 75 303 0.0 0.0 0.00 0.01 0.00 72 1016.2
20260903054019 75 320 0.0 0.0 0.00 0.01 0.00 71 1016.2
20260903053516 75 319 0.0 0.0 0.00 0.01 0.00 71 1016.3
20260903053014 75 319 0.0 0.0 0.00 0.01 0.00 71 1016.4
20260903052512 76 327 0.0 0.0 0.00 0.01 0.00 71 1016.4
20260903052011 76 351 0.0 0.0 0.00 0.01 0.00 71 1016.5
20260903051510 76 325 0.0 0.0 0.00 0.01 0.00 71 1016.5
20260903051008 76 331 0.0 0.0 0.00 0.01 0.00 72 1016.6
20260903050507 75 338 0.0 0.0 0.00 0.01 0.00 72 1016.6
20260903050007 75 20 0.0 0.0 0.00 0.01 0.00 72 1016.7
20260903045504 75 315 0.0 0.0 0.00 0.01 0.00 71 1016.8
20260903045002 75 307 0.0 0.0 0.00 0.01 0.00 71 1016.9
20260903044502 75 338 0.0 0.0 0.00 0.01 0.00 71 1016.9
20260903044100 75 360 0.0 0.0 0.00 0.01 0.00 71 1017.0
20260903043559 75 27 0.0 0.0 0.00 0.01 0.00 71 1017.0
20260903043056 76 321 0.0 0.0 0.00 0.01 0.00 71 1017.1
20260903042555 76 302 0.0 0.0 0.00 0.01 0.00 71 1017.1
20260903042055 76 24 0.0 0.0 0.00 0.01 0.00 71 1017.2
20260903041608 76 346 0.0 0.0 0.00 0.01 0.00 71 1017.2
20260903041050 76 337 0.0 0.0 0.00 0.01 0.00 71 1017.3
20260903040553 76 327 0.0 0.0 0.00 0.01 0.00 71 1017.1
20260903040050 76 326 0.0 0.0 0.00 0.01 0.00 71 1017.2
20260903035551 76 319 0.0 0.0 0.00 0.01 0.01 71 1017.2
20260903035051 76 342 0.0 0.0 0.00 0.01 0.01 71 1017.2
20260903034547 76 338 0.0 0.0 0.00 0.01 0.01 71 1017.3
20260903034049 76 320 0.0 0.0 0.00 0.01 0.01 71 1017.3
20260903033546 76 316 0.0 0.0 0.00 0.01 0.01 71 1017.3
20260903033046 76 8 0.0 0.0 0.00 0.01 0.01 71 1017.3
20260903032546 76 307 0.0 0.0 0.00 0.01 0.01 71 1017.3
20260903032046 76 303 0.0 0.0 0.00 0.01 0.01 71 1017.4
20260903031546 76 302 0.0 0.0 0.00 0.01 0.01 70 1017.4
20260903031050 76 304 0.0 0.0 0.00 0.01 0.01 70 1017.4
20260903030546 76 304 0.0 0.0 0.00 0.01 0.01 69 1017.4
20260903030046 76 305 0.0 0.0 0.00 0.01 0.01 69 1017.5
20260903025546 76 306 0.0 0.0 0.00 0.01 0.01 69 1017.4
20260903025045 76 331 0.0 0.0 0.00 0.01 0.01 69 1017.5
20260903024545 76 341 0.0 0.0 0.00 0.01 0.01 69 1017.5
20260903024048 76 341 0.0 0.0 0.00 0.01 0.01 69 1017.4
20260903023543 76 349 0.0 0.0 0.00 0.01 0.01 68 1017.4
20260903023045 77 349 0.0 0.0 0.00 0.01 0.01 68 1017.5
20260903022543 77 320 0.0 0.0 0.00 0.01 0.01 68 1017.3
20260903022047 77 319 0.0 0.0 0.00 0.01 0.01 67 1017.3
20260903021544 77 319 0.0 0.0 0.00 0.01 0.01 67 1017.2
20260903021044 77 319 0.0 0.0 0.00 0.01 0.01 67 1017.3
20260903020545 77 319 0.0 0.0 0.00 0.01 0.01 66 1017.3
20260903020050 77 329 0.0 0.0 0.00 0.01 0.01 66 1017.3
20260903015543 77 329 0.0 0.0 0.00 0.01 0.01 66 1017.2
20260903015043 77 330 0.0 0.0 0.00 0.01 0.01 66 1017.2
20260903014605 77 330 0.0 0.0 0.00 0.01 0.01 66 1017.3
20260903014043 77 330 0.0 0.0 0.00 0.01 0.01 66 1017.2
20260903013542 78 330 0.0 0.0 0.00 0.01 0.01 66 1017.3
20260903013057 78 330 0.0 0.0 0.00 0.01 0.01 66 1017.3
20260903012541 78 330 0.0 0.0 0.00 0.01 0.01 66 1017.3
20260903012042 78 330 0.0 0.0 0.00 0.01 0.01 66 1017.2
20260903011609 78 330 0.0 0.0 0.00 0.01 0.01 66 1017.2
20260903011041 78 330 0.0 0.0 0.00 0.01 0.01 65 1017.3
20260903010543 78 330 0.0 0.0 0.00 0.01 0.01 65 1017.3
20260903010058 78 330 0.0 0.0 0.00 0.01 0.01 66 1017.3
20260903005542 78 330 0.0 0.0 0.00 0.01 0.01 65 1017.3
20260903005041 78 330 0.0 0.0 0.00 0.01 0.01 65 1017.2
20260903004541 78 330 0.0 0.0 0.00 0.01 0.01 65 1017.1
20260903004041 79 330 0.0 0.0 0.00 0.01 0.01 65 1017.2
20260903003540 79 330 0.0 0.0 0.00 0.01 0.01 65 1017.0
20260903003049 80 270 0.0 0.0 0.00 0.01 0.01 64 1017.0
20260903002540 80 216 0.0 0.0 0.00 0.01 0.01 64 1016.8
20260903002043 81 215 0.0 0.0 0.00 0.01 0.01 64 1016.7
20260903001552 81 215 0.0 0.0 0.00 0.01 0.01 64 1016.7
20260903001039 81 216 0.0 0.0 0.00 0.01 0.01 64 1016.7
20260903000540 80 230 0.0 0.0 0.00 0.01 0.01 64 1016.5
20260903000046 80 202 0.0 0.0 0.00 0.01 0.01 64 1016.5
20260902235539 80 195 0.0 0.0 0.00 0.01 0.01 64 1016.4